Location: ??????????
(44.2167°N, 135.5333°E)
Time: 15:15:33
(UTC+00:00)

Cosmos 1992 Rocket - Pass Details

Date: 15 June 2025
Orbit: 755 x 761 km, 74.0° (Epoch: 16 July)

Event Time Altitude Azimuth Distance (km) Brightness Sun altitude
Rises 12:27:57 0° 339° (NNW) 3,221 8.9 -14.2°
Reaches altitude 10° 12:30:20 10° 339° (NNW) 2,291 7.8 -14.4°
Maximum altitude 12:35:32 90° 231° (SW) 762 3.9 -15.0°
Enters shadow 12:38:47 23° 161° (SSE) 1,550 5.0 -15.3°
